Tracking 22439 objects as of 27-Feb-2021
HD Live streaming from Space Station
objects crossing your sky now

BRAZILSAT B2

Track BRAZILSAT B2 now!
BRAZILSAT B2 is classified as:


NORAD ID: 23536
Int'l Code: 1995-016A
Perigee: 36,071.3 km
Apogee: 36,102.5 km
Inclination: 9.1 °
Period: 1,451.1 minutes
Semi major axis: 42457 km
RCS: 7.5458 m2 (large)
Launch date: March 28, 1995
Source: Brazil (BRAZ)
Launch site: FRENCH GUIANA (FRGUI)

24 C-band; several X-band.
aabbcc
Your satellite tracking list
Your tracking list is empty




NASA's NSSDC Master Catalog

Two Line Element Set (TLE):
1 23536U 95016A   21058.52990267 -.00000006  00000-0  00000-0 0  9993
2 23536   9.0600  43.8595 0003672 321.5028 242.9961  0.99235190 94889
Source of the keplerian elements: AFSPC